カタログに戻る

STARLINK-33531

運用中通信VLEO
NORAD 63399·PAYLOAD·🇺🇸 United States

打ち上げ Mar 31, 2025 から Cape Canaveral Space Force Station

Loading…

次のパス (今後24時間)

TLE

最新Source: CelesTrak SupGP

元期: Sep 15, 2026, 03:52 UTC

1 63399C 25065A   26258.16159722  .00030543  00000+0  11061-2 0  2587
2 63399  43.0025 116.9708 0001453 273.2643 248.1473 15.27568634    15

AllMySatでSTARLINK-33531をリアルタイム追跡

Download on the App Store